TimeGMT,TemperatureF,Dew PointF,Humidity,Sea Level PressureIn,VisibilityMPH,Wind Direction,Wind SpeedMPH,Gust SpeedMPH,PrecipitationIn,Events,Conditions,WindDirDegrees,DateUTC
12:00 AM,43,43,98,29.88,12,SW,2.2,,,Rain,Light Rain,230,2013-01-17 00:00:00
12:00 AM,42.8,42.8,100,29.86,6.2,SW,2.3,-,N/A,,Mostly Cloudy,230,2013-01-17 00:00:00
12:30 AM,42.8,42.8,100,29.86,6.2,West,3.5,-,N/A,,Mostly Cloudy,280,2013-01-17 00:30:00
1:00 AM,42.8,42.8,100,29.86,6.2,NW,3.5,-,N/A,,Mostly Cloudy,320,2013-01-17 01:00:00
1:30 AM,42.8,41.0,93,29.86,6.2,Calm,Calm,-,N/A,,Mostly Cloudy,0,2013-01-17 01:30:00
2:00 AM,42.8,41.0,93,29.86,6.2,WNW,2.3,-,N/A,,Mostly Cloudy,290,2013-01-17 02:00:00
2:30 AM,42.8,41.0,93,29.83,6.2,WNW,4.6,-,N/A,,Mostly Cloudy,290,2013-01-17 02:30:00
3:00 AM,41.0,41.0,100,29.83,6.2,NW,2.3,-,N/A,,Mostly Cloudy,320,2013-01-17 03:00:00
3:30 AM,42.8,41.0,93,29.83,6.2,WNW,3.5,-,N/A,,Mostly Cloudy,300,2013-01-17 03:30:00
4:00 AM,42.8,41.0,93,29.83,6.2,West,2.3,-,N/A,,Mostly Cloudy,280,2013-01-17 04:00:00
4:30 AM,42.8,41.0,93,-9999,6.2,West,2.3,-,N/A,,Mostly Cloudy,260,2013-01-17 04:30:00
5:00 AM,42.8,39.2,87,29.83,6.2,SSW,2.3,-,N/A,,Mostly Cloudy,200,2013-01-17 05:00:00
5:30 AM,42.8,41.0,93,29.83,6.2,SSW,2.3,-,N/A,,Mostly Cloudy,210,2013-01-17 05:30:00
6:00 AM,42,40,88,29.84,12,South,2.2,,,,Mostly Cloudy,190,2013-01-17 06:00:00
6:00 AM,42.8,39.2,87,29.80,6.2,South,2.3,-,N/A,,Mostly Cloudy,190,2013-01-17 06:00:00
6:30 AM,41.0,41.0,100,29.80,6.2,South,2.3,-,N/A,,Mostly Cloudy,190,2013-01-17 06:30:00
7:00 AM,41.0,41.0,100,29.80,6.2,South,2.3,-,N/A,,Mostly Cloudy,180,2013-01-17 07:00:00
7:30 AM,41.0,41.0,100,29.80,6.2,SSW,3.5,-,N/A,,Mostly Cloudy,210,2013-01-17 07:30:00
8:00 AM,41.0,41.0,100,29.80,6.2,South,3.5,-,N/A,,Mostly Cloudy,180,2013-01-17 08:00:00
8:30 AM,42.8,41.0,93,29.80,6.2,SSE,3.5,-,N/A,,Mostly Cloudy,160,2013-01-17 08:30:00
9:30 AM,42.8,42.8,100,29.77,6.2,ESE,6.9,-,N/A,,Mostly Cloudy,110,2013-01-17 09:30:00
10:00 AM,42.8,42.8,100,29.77,6.2,ESE,6.9,-,N/A,,Mostly Cloudy,120,2013-01-17 10:00:00
10:30 AM,44.6,44.6,100,29.77,6.2,ESE,8.1,-,N/A,,Mostly Cloudy,120,2013-01-17 10:30:00
11:00 AM,44.6,44.6,100,29.74,6.2,SE,9.2,-,N/A,,Mostly Cloudy,140,2013-01-17 11:00:00
11:30 AM,44.6,44.6,100,29.74,6.2,SE,11.5,-,N/A,,Mostly Cloudy,140,2013-01-17 11:30:00
12:00 PM,45,45,99,29.74,12,SSE,11.2,,,Rain,Light Rain,160,2013-01-17 12:00:00
12:00 PM,44.6,44.6,100,29.71,6.2,SSE,10.4,-,N/A,,Mostly Cloudy,160,2013-01-17 12:00:00
12:30 PM,46.4,44.6,93,29.71,6.2,SSE,15.0,-,N/A,Rain,Light Rain,150,2013-01-17 12:30:00
1:00 PM,46.4,46.4,100,29.68,2.5,SSE,15.0,-,N/A,Rain,Light Rain,150,2013-01-17 13:00:00
1:30 PM,46.4,46.4,100,29.68,6.2,SSE,12.7,-,N/A,,Mostly Cloudy,160,2013-01-17 13:30:00
2:00 PM,46.4,46.4,100,29.65,6.2,SSE,13.8,-,N/A,,Mostly Cloudy,160,2013-01-17 14:00:00
2:30 PM,46.4,46.4,100,29.62,6.2,SSE,12.7,-,N/A,Rain,Light Rain,150,2013-01-17 14:30:00
3:00 PM,46.4,46.4,100,29.62,1.1,SSE,12.7,-,N/A,Rain,Light Rain,160,2013-01-17 15:00:00
3:30 PM,46.4,46.4,100,29.59,6.2,SSE,15.0,-,N/A,Rain,Light Rain,160,2013-01-17 15:30:00
4:00 PM,46.4,46.4,100,29.59,3.7,SSE,16.1,-,N/A,Rain,Light Rain,150,2013-01-17 16:00:00
4:30 PM,46.4,46.4,100,29.56,6.2,SSE,17.3,-,N/A,Rain,Light Rain,160,2013-01-17 16:30:00
5:00 PM,46.4,46.4,100,29.56,6.2,SSE,18.4,-,N/A,Rain,Light Rain,160,2013-01-17 17:00:00
5:30 PM,46.4,46.4,100,29.53,6.2,SSE,21.9,-,N/A,Rain,Light Rain,150,2013-01-17 17:30:00
6:00 PM,47,47,100,29.55,7,SSE,22.4,,,Rain,Light Rain,150,2013-01-17 18:00:00
6:00 PM,46.4,46.4,100,29.53,6.2,SSE,23.0,-,N/A,Rain,Light Rain,150,2013-01-17 18:00:00
6:30 PM,48.2,48.2,100,29.50,3.7,SSE,24.2,35.7,N/A,Rain,Rain,150,2013-01-17 18:30:00
7:00 PM,48.2,48.2,100,29.47,5.0,SSE,25.3,38.0,N/A,Rain,Rain,150,2013-01-17 19:00:00
7:30 PM,46.4,46.4,100,29.47,3.7,SSE,25.3,-,N/A,Rain,Rain,150,2013-01-17 19:30:00
8:00 PM,46.4,46.4,100,29.44,2.8,SSE,27.6,41.4,N/A,Rain,Rain,150,2013-01-17 20:00:00
8:30 PM,48.2,48.2,100,29.42,2.8,SE,25.3,-,N/A,Rain,Rain,140,2013-01-17 20:30:00
9:00 PM,46.4,46.4,100,29.39,3.1,SE,29.9,-,N/A,Rain,Rain,140,2013-01-17 21:00:00
9:30 PM,48.2,48.2,100,29.39,2.5,SE,28.8,42.6,N/A,Rain,Rain,140,2013-01-17 21:30:00
10:00 PM,48.2,48.2,100,29.36,2.5,SE,28.8,-,N/A,Rain,Rain,140,2013-01-17 22:00:00
10:30 PM,48.2,48.2,100,29.33,2.2,SE,27.6,-,N/A,Rain,Rain,140,2013-01-17 22:30:00
11:00 PM,48.2,48.2,100,29.30,2.2,SSE,26.5,44.9,N/A,Rain,Rain,150,2013-01-17 23:00:00
11:30 PM,48.2,48.2,100,29.30,2.2,SSE,18.4,-,N/A,Rain,Rain,150,2013-01-17 23:30:00